Caribou, ME

8:04 PM EDT on April 23, 2018 (GMT -0400)
Caribou Municipal

Weather History for KCAR - September, 2013

Change the Weather History Date:

Wednesday, September 4, 2013

  Actual Average Record
Temperature  
Mean Temperature 58 °F 59 °F  
Max Temperature 72 °F 70 °F 85 °F (1983)
Min Temperature 43 °F 48 °F 32 °F (1989)
Degree Days  
Heating Degree Days 7 7  
Month to date heating degree days 13 25  
Since 1 July heating degree days 127 179  
Cooling Degree Days 0 1  
Month to date cooling degree days 6 4  
Year to date cooling degree days 185 173  
Growing Degree Days 10 (Base 50)    
Moisture  
Dew Point 53 °F    
Average Humidity 79    
Maximum Humidity 100    
Minimum Humidity 57    
Precipitation  
Precipitation 0.00 in 0.11 in 1.62 in (1972)
Month to date precipitation 2.25 0.42  
Year to date precipitation 35.27 25.16  
Snow  
Snow 0.00 in 0.00 in 0.00 in (2002)
Month to date snowfall 0.0 0.0  
Since 1 July snowfall 0.0 0.0  
Since 1 September snowfall 0.0 0.0  
Snow Depth 0.00 in    
Sea Level Pressure  
Sea Level Pressure 29.72 in    
Wind  
Wind Speed 8 mph (WSW)    
Max Wind Speed 20 mph    
Max Gust Speed 29 mph    
Visibility 10 miles    
Events      
T = Trace of Precipitation, MM = Missing Value Source: NWS Daily Summary

Daily Weather History Graph

Daily Weather History Graph

Search for Another Location

Airport or City:

Astronomy

Sep. 04, 2013 Rise Set
Actual Time 5:55 AM EDT 7:05 PM EDT
Civil Twilight 5:24 AM EDT 7:36 PM EDT
Nautical Twilight 4:47 AM EDT 8:13 PM EDT
Astronomical Twilight 4:07 AM EDT 8:53 PM EDT
Moon 5:04 AM EDT (9/4) 6:20 PM EDT (9/4)
Length of Visible Light 14h 11m
Length of Day
13h 09m
Waning Crescent, 1% of the Moon is Illuminated
Sep 4
Waning Crescent
Sep 5
New
Sep 12
First Quarter
Sep 19
Full
Sep 26
Last Quarter

Hourly Weather History & Observations

Time (EDT) Temp. Dew Point Humidity Pressure Visibility Wind Dir Wind Speed Gust Speed Precip Events Conditions
12:54 AM 59.0 °F 57.0 °F 93% 29.69 in 10.0 mi WSW 5.8 mph - N/A   Clear
1:54 AM 60.1 °F 57.9 °F 93% 29.69 in 10.0 mi SW 5.8 mph - N/A   Partly Cloudy
2:54 AM 59.0 °F 57.0 °F 93% 29.68 in 10.0 mi SW 5.8 mph - N/A   Mostly Cloudy
3:54 AM 60.1 °F 57.9 °F 93% 29.67 in 10.0 mi SSW 6.9 mph - N/A   Overcast
4:54 AM 59.0 °F 57.0 °F 93% 29.68 in 10.0 mi SW 4.6 mph - N/A   Overcast
5:54 AM 57.0 °F 55.9 °F 96% 29.69 in 10.0 mi SW 4.6 mph - N/A   Mostly Cloudy
6:54 AM 57.9 °F 57.0 °F 97% 29.69 in 10.0 mi SW 4.6 mph - N/A   Scattered Clouds
7:26 AM 60.8 °F 57.2 °F 88% 29.69 in 10.0 mi SSW 5.8 mph - N/A   Mostly Cloudy
7:54 AM 61.0 °F 57.0 °F 87% 29.70 in 10.0 mi WSW 6.9 mph - N/A   Mostly Cloudy
8:16 AM 60.8 °F 57.2 °F 88% 29.68 in 10.0 mi SW 8.1 mph - N/A   Overcast
8:54 AM 62.1 °F 57.0 °F 84% 29.69 in 10.0 mi SW 8.1 mph - N/A   Overcast
9:02 AM 62.6 °F 57.2 °F 82% 29.68 in 10.0 mi Variable 6.9 mph 17.3 mph N/A   Overcast
9:54 AM 63.0 °F 57.0 °F 81% 29.68 in 10.0 mi SW 11.5 mph 19.6 mph N/A   Overcast
10:54 AM 66.0 °F 57.0 °F 73% 29.68 in 10.0 mi WSW 12.7 mph 18.4 mph N/A   Mostly Cloudy
11:02 AM 66.2 °F 55.4 °F 68% 29.68 in 10.0 mi WSW 12.7 mph 19.6 mph N/A   Mostly Cloudy
11:54 AM 69.1 °F 55.9 °F 63% 29.67 in 10.0 mi SW 9.2 mph 23.0 mph N/A   Partly Cloudy
12:54 PM 71.1 °F 55.9 °F 59% 29.66 in 10.0 mi WSW 12.7 mph 24.2 mph N/A   Overcast
1:54 PM 71.1 °F 55.0 °F 57% 29.65 in 10.0 mi SW 11.5 mph - N/A   Overcast
2:54 PM 70.0 °F 53.1 °F 55% 29.66 in 10.0 mi West 12.7 mph 23.0 mph N/A   Overcast
3:54 PM 66.9 °F 53.1 °F 61% 29.69 in 10.0 mi WSW 13.8 mph 20.7 mph N/A   Overcast
4:54 PM 66.9 °F 53.1 °F 61% 29.71 in 10.0 mi WSW 12.7 mph 19.6 mph N/A   Partly Cloudy
5:54 PM 64.9 °F 54.0 °F 68% 29.73 in 10.0 mi NW 12.7 mph 18.4 mph N/A   Mostly Cloudy
6:54 PM 59.0 °F 48.0 °F 67% 29.76 in 10.0 mi NNW 9.2 mph - N/A   Clear
7:54 PM 55.9 °F 45.0 °F 67% 29.81 in 10.0 mi NNW 9.2 mph - N/A   Partly Cloudy
8:54 PM 52.0 °F 43.0 °F 71% 29.84 in 10.0 mi NNW 4.6 mph - N/A   Partly Cloudy
9:54 PM 50.0 °F 43.0 °F 77% 29.86 in 10.0 mi North 6.9 mph - N/A   Clear
10:54 PM 48.0 °F 42.1 °F 80% 29.86 in 10.0 mi NNW 6.9 mph - N/A   Clear
11:54 PM 45.0 °F 42.1 °F 90% 29.86 in 10.0 mi Calm Calm - N/A   Clear